www.pogodaiklimat.ru

Погода и климат >> Архив погоды >> Индонезия >> Meulaboh


ПОГОДА в Meulaboh

  • Прогноз погоды в Meulaboh
  • Монитор погоды в Meulaboh
  • Климат города

АРХИВ ПОГОДЫ в Meulaboh

Время (UTC), дата Ветер
(напр.,м/с)
 
Видим.   Явления Облачность Т
(С)
Тd
(С)
f
(%)
Тe
(С)
Тes
(С)
Комфортность P
(гПа)
Po
(гПа)
Тmin
(С)
Tmax
(С)
R
(мм)
R24
(мм)
S
(см)
03 14.05 З 1 10 км 5/3 540 м
[Sc Ac und Ci sp]
+30.2 +27.3 85 +48 +57 опасность
перегрева
1010.3 1009.7
06 14.05 З 4 10 км 6/4 600 м
[Sc Ac und Ci sp]
+31.6 +27.7 80 +51 +59 опасность
перегрева
1008.7 1008.1
09 14.05 З 3 10 км 6/4 480 м
[Cu med, cong Ac As Ci sp]
+31.0 +27.6 82 +50 +54 опасность
перегрева
1006.6 1006.0
12 14.05 С 2 5000 м гроза, ливневой дождь 9/8 420 м
[Cb cap Ac As Ci fib]
+28.3 +25.3 84 +41 +41 опасность
перегрева
1008.5 1007.9 +32.1 0.0
15 14.05 штиль 0 5000 м 8/5 450 м
[Cb cap Ac As Ci sp]
+25.4 +24.9 97 +36 +36 очень
душно
1010.5 1009.9
18 14.05 штиль 0 6000 м 9/5 480 м
[Sc Ac As Ci sp]
+25.4 +24.9 97 +36 +36 очень
душно
1009.2 1008.6
21 14.05 штиль 0 5000 м гроза без осадков 9/6 450 м
[Cb cap Ac As Ci fib]
+24.8 +24.4 98 +35 +35 очень
душно
1007.3 1006.7
00 15.05 В 1 5000 м дымка {гроза, дождь} 9/6 480 м
[Sc Ac As Ci fib]
+25.1 +24.8 98 +35 +36 очень
душно
1008.0 1007.4 +24.6 0.4
03 15.05 ЮЗ 2 10 км 8/4 500 м
[Sc Ac As Ci fib]
+29.9 +26.7 83 +46 +52 опасность
перегрева
1009.6 1009.0
06 15.05 ЮЗ 3 15 км 8/3 540 м
[Cu med, cong Ac lent Ci fib]
+31.2 +26.3 75 +47 +55 опасность
перегрева
1008.6 1008.0
09 15.05 З 3 10 км 8/4 480 м
[Cu med, cong Ac und Ci sp]
+31.1 +27.3 80 +49 +52 опасность
перегрева
1006.1 1005.5
12 15.05 ЮВ 2 5000 м в посл. час дождь 9/5 420 м
[Cb cap Ac As Ci sp]
+26.2 +25.4 95 +38 +38 очень
душно
1006.7 1006.1 +32.0
15 15.05 штиль 0 3000 м сильная гроза, ливневой дождь 10/6 300 м
[Cb cap Ac trans]
+25.2 +24.9 98 +36 +36 очень
душно
1009.6 1009.0
18 15.05 штиль 0 4000 м слабый ливневой дождь, в посл. час гроза 10/6 300 м
[Cb cap Ac trans]
+24.6 +24.3 98 +34 +34 очень
душно
1008.8 1008.2 2
21 15.05 СВ 1 5000 м мгла {дождь} 9/4 450 м
[Sc Ac As Ci sp]
+24.4 +24.1 98 +34 +34 очень
душно
1006.9 1006.3 0.3
03 16.05 ЮЗ 1 6000 м 9/6 360 м
[Sc Ac As Ci sp]
+27.5 +26.2 93 +42 +45 опасность
перегрева
1010.5 1009.9
06 16.05 Ю 6 7000 м 9/6 360 м
[Cb cap Ac As Ci sp]
+30.2 +26.6 81 +47 +48 опасность
перегрева
1008.9 1008.3
09 16.05 ЮЗ 2 10 км 8/5 420 м
[Cb cap Ac As Ci sp]
+29.8 +26.6 83 +46 +49 опасность
перегрева
1006.3 1005.6
12 16.05 штиль 0 5000 м слабый ливневой дождь, в посл. час гроза 10/6 300 м
[Cb cap Ac trans]
+27.8 +26.2 91 +42 +42 опасность
перегрева
1006.9 1006.3 +31.0 0.0
18 16.05 С 2 3000 м слабый дождь 10/5 480 м
[Sc Ac und]
+24.7 +24.7 100 +35 +35 очень
душно
1009.3 1008.7 3
21 16.05 СВ 1 6000 м 10/6 500 м
[Sc Ac lent]
+24.6 +24.3 98 +34 +34 очень
душно
1007.7 1007.1
00 17.05 СВ 1 6000 м {гроза, дождь} 8/5 500 м
[Cb cap Ac As Ci fib]
+24.2 +23.9 98 +33 +33 очень
душно
1008.4 1008.7 +24.0 3
03 17.05 СВ 3 9000 м 8/4 540 м
[Sc diur, vesp As trans Ci sp]
+29.0 +26.6 87 +45 +49 опасность
перегрева
1009.6 1009.0
09 17.05 З 2 9000 м 9/4 500 м
[Cu med, cong As op Ci sp]
+29.4 +25.2 78 +43 +46 опасность
перегрева
1006.0 1005.4
12 17.05 С 1 5000 м слабый дождь {гроза} 10/8 480 м
[Cb cap As op]
+26.0 +26.0 100 +39 +39 очень
душно
1006.9 1006.3 +31.0 0.8
15 17.05 штиль 0 6000 м в посл. час дождь 9/5 480 м
[Sc As op Ci sp]
+26.0 +25.3 96 +38 +38 очень
душно
1008.1 1007.5 0.3
18 17.05 штиль 0 5000 м {дождь} 9/4 500 м
[Sc As op Ci sp]
+25.5 +25.1 98 +37 +37 очень
душно
1008.3 1007.7 0.3
21 17.05 СВ 1 5000 м дымка 9/4 500 м
[Sc Ac und Ci sp]
+24.7 +24.7 100 +35 +35 очень
душно
1006.9 1006.3
00 18.05 штиль 0 5000 м гроза без осадков {дождь} 9/5 480 м
[Cb cap Ac As Ci sp]
+24.6 +24.3 98 +34 +34 очень
душно
1007.7 1007.1 +24.2 0.1
03 18.05 Ю 1 8000 м 8/5 500 м
[Cu med, cong Ac As Ci sp]
+28.5 +26.1 87 +43 +48 опасность
перегрева
1009.4 1008.8
06 18.05 ЮЗ 1 8000 м 9/5 500 м
[Cu med, cong Ac As Ci sp]
+29.6 +26.4 83 +45 +52 опасность
перегрева
1007.8 1007.2
09 18.05 СЗ 5 8000 м гроза без осадков 9/5 480 м
[Cb calv As op Ci sp]
+31.4 +27.2 78 +49 +51 опасность
перегрева
1005.6 1005.0
12 18.05 СВ 1 6000 м в посл. час гроза 9/5 450 м
[Sc diur, vesp As op Ci sp]
+27.0 +25.7 93 +40 +40 очень
душно
1006.6 1006.0 +32.0
15 18.05 В 1 6000 м 8/4 500 м
[Sc Ac As Ci sp]
+25.8 +25.0 95 +37 +37 очень
душно
1009.2 1008.6
18 18.05 В 1 3000 м слабый дождь 9/5 480 м
[Sc Ac As Ci sp]
+25.0 +24.7 98 +35 +35 очень
душно
1008.4 1007.8 0.0
21 18.05 штиль 0 6000 м 9/4 480 м
[Sc Ac As Ci sp]
+25.0 +24.5 97 +35 +35 очень
душно
1006.8 1006.2
00 19.05 СВ 1 5000 м дымка 6/3 600 м
[Cu med, cong Ac As Ci sp]
+24.4 +24.1 98 +34 +34 очень
душно
1007.4 1006.8 +23.0
03 19.05 З 2 8000 м 8/4 500 м
[Sc diur, vesp Ac trans Ci sp]
+28.0 +25.9 88 +42 +47 опасность
перегрева
1009.6 1009.0
06 19.05 З 2 9000 м 8/4 500 м
[Sc As op Ci sp]
+30.6 +27.2 82 +48 +56 опасность
перегрева
1008.2 1007.6
09 19.05 СЗ 3 10 км 9/6 400 м
[Cb cap Ac As Ci sp]
+29.0 +26.3 85 +44 +46 опасность
перегрева
1006.0 1005.4
12 19.05 З 3 7000 м осадки на расстоянии 9/6 500 м
[Cb cap Ac As Ci fib]
+27.2 +25.3 89 +39 +39 очень
душно
1007.2 1006.6 +30.9
15 19.05 штиль 0 6000 м 9/4 480 м
[Sc Ac As Ci fib]
+26.6 +25.5 94 +39 +39 очень
душно
1009.0 1008.4
18 19.05 В 1 6000 м 9/4 480 м
[Sc Ac As Ci fib]
+26.0 +25.5 97 +38 +38 очень
душно
1008.4 1007.8
21 19.05 ЮВ 1 5000 м дымка 10/5 480 м
[Sc Ac und]
+24.2 +24.2 100 +33 +33 очень
душно
1006.0 1005.4
00 20.05 В 1 4000 м дымка 9/5 500 м
[Cb calv Ac As Ci sp]
+24.4 +24.4 100 +34 +34 очень
душно
1007.1 1006.5 +23.9
03 20.05 Ю 2 10 км 5/3 500 м
[Sc Ac As Ci sp]
+29.6 +26.6 84 +46 +54 опасность
перегрева
1009.2 1008.6
06 20.05 ЮЗ 3 10 км 9/5 500 м
[Cu med, cong Ac As Ci sp]
+30.6 +27.5 84 +49 +54 опасность
перегрева
1008.2 1007.6
09 20.05 З 3 7000 м 9/6 480 м
[Cb cap Ac As Ci fib]
+30.6 +27.2 82 +48 +50 опасность
перегрева
1006.0 1005.4
12 20.05 С 1 6000 м 9/6 420 м
[Cb cap Ac As Ci sp]
+29.0 +26.6 87 +45 +45 опасность
перегрева
1007.4 1006.8 +31.2
15 20.05 штиль 0 5000 м мгла 9/5 420 м
[Cb cap Ac As Ci sp]
+25.6 +24.8 95 +36 +36 очень
душно
1009.4 1008.8
18 20.05 СВ 2 4000 м дымка 9/6 420 м
[Cb cap Ac As Ci sp]
+24.7 +24.7 100 +35 +35 очень
душно
1008.5 1007.9
21 20.05 штиль 0 6000 м 8/4 500 м
[Sc As op Ci sp]
+24.8 +24.5 98 +35 +35 очень
душно
1007.2 1006.6
00 21.05 В 3 6000 м 8/4 540 м
[Sc Ac trans Ci sp]
+24.8 +24.3 97 +34 +34 очень
душно
1008.1 1007.5 +24.6

 

Местоположение метеостанции Meulaboh (Индонезия): широта 4.25 долгота 96.12 высота над уровнем моря 90 м.

В архиве по умолчанию представлена погода в Meulaboh за последнюю неделю. Архивные данные за месяц целиком и за предыдущие месяцы, начиная с января 2011 года, Вы можете получить, выбрав интересующий диапазон дат из раскрывающегося списка и нажав кнопку "Ввод!".


*Определитесь, кто Вы:
робот инопланетянин человек

Внимание! Время в таблицах - всемирное. Для получения местного времени необходимо прибавить поправку, которая в Meulaboh равна 7 ч.

Смотрите также архив погоды в соседних городах и на ближайших метеорологических станциях:

Погода в Banda Aceh (Индонезия) (161 км)
Погода в Lhokseumawe (Индонезия) (162 км)
Погода в Sabang (Индонезия) (201 км)
Погода в Belawan (Индонезия) (291 км)
Погода в Medan Polonia Int Airport (Индонезия) (294 км)
Погода в Gunungsitoli (Индонезия) (349 км)
Погода в Sibolga (Индонезия) (429 км)
Погода в Langkawi (Малайзия) (462 км)
Погода в Penang (Малайзия) (474 км)
Погода в Phuket (Таиланд) (476 км)

Пояснения к столбцам:

Ветер - указаны скорость ветра в м/с - средняя за 10 мин, порывы в срок и между сроками (в фигурных скобках) и направление, откуда дует ветер: С - северный, СВ - северо-восточный, В - восточный, ЮВ - юго-восточный, Ю - южный, ЮЗ - юго-западный, З - западный, СЗ - северо-западный.
Видимость - горизонтальная дальность видимости в метрах или километрах. При видимости от 1 до 10 км при отсутствии осадков обычно наблюдается дымка, при ухудшении видимости до 1 км и менее - туман. В сухую погоду видимость может ухудшаться дымом, пылью или мглою.
Явления - указаны атмосферные явления, наблюдавшиеся в срок или в последний час перед сроком; фигурными скобками обозначены явления, наблюдавшиеся между сроками (за 1-3 часа до срока); квадратными скобками обозначены град или гололедные отложения с указанием их диаметра в мм.
Облачность - указаны через наклонную черту общая и нижняя облачность в баллах и высота нижней границы облаков в метрах; квадратными скобками обозначены формы облаков: Ci - перистые, Cs - перисто-слоистые, Cc - перисто-кучевые, Ac - высококучевые, As - высокослоистые, Sc - слоисто-кучевые, Ns - слоисто-дождевые, Cu - кучевые, Cb - кучево-дождевые. Подробнее классификацию облаков см. в Атласе облаков (PDF).
T - Температура воздуха - температура, измеренная на высоте 2 м над землей.
Td - Температура точки росы - температура, при понижении до которой содержащийся в воздухе водяной пар достигнет насыщения.
f - Относительная влажность воздуха - влажноcть воздуха, измеренная на высоте 2 м над землей.
Te - Эффективная температура - температура, которую ощущает одетый по сезону человек в тени. Характеристика душности погоды. При расчете учитывается влияние влажности воздуха и скорости ветра на теплоощущения человека.
Tes - Эффективная температура на солнце - температура, которую ощущает человек, с поправкой на солнечный нагрев. Характеристика знойности погоды. Зависит от высоты солнца над горизонтом, облачности и скорости ветра. Ночью, в пасмурную погоду, а также при ветре 12 м/с и более поправка равна нулю.
P - Атмосферное давление - приведенное к уровню моря атмосферное давление.
Po - Атмосферное давление - измеренное на уровне метеостанции атмосферное давление.
Tmin - Минимальная температура - минимум температуры воздуха на высоте 2 м над землей.
Tmax - Максимальная температура - максимум температуры воздуха на высоте 2 м над землей.
R - Количество осадков - Количество выпавших осадков за период времени, мм. При наведении курсора мыши на число - период времени, за который выпало указанное количество осадков.
R24 - Количество осадков - Количество выпавших осадков за 24 часа, мм.
S - Снежный покров - Высота снежного покрова, см. При наведении курсора мыши на число - состояние снежного покрова и степень покрытия местности в баллах.